Find Starlink 33707

NORAD ID: 63401 Int'l Des: 2025-065 Owner: SPXS Country: US Constellation: starlink operational
LEOCIRCULAR

实时位置

正在加载3D地球...

关于 Starlink 33707

正在加载描述...

即将过境

Passes for default location (London). Set your location on the main map for personalized predictions.

高度历史

Loading altitude history...

两行轨道根数

1 63401U 25065C 26124.34777674 .00014129 00000-0 52177-3 0 9994
2 63401 42.9995 152.6225 0001193 269.9516 90.1199 15.27593067 61358
Epoch: May 4, 2026 • Age: 12 hours

当前状态

高度 484.2 km
速度 7.62 km/s
星下点 -9.01°S, 174.25°E
发射日期 Mar 31, 2025
运行时间 1 years
类型 internet

技术详情

分类 Payload
质量 575.00 kg
干质量 530.00 kg
总质量 575.00 kg
长度 0.30 m
直径 4.10 m
跨度 29.00 m
形状 Box + pan
制造商 SPXS
平台类型 Starlink V2MO
阶段状态 In Orbit
所有者/国家 SPXS/US

Most Searched